Overview Statistics Trail Chart Weather Telemetry Raw packets
 

This is the latest recevied weather packets stored in our database for station/object S57PNX-8. If no packets are shown the sender has not sent any weather packets the latest 10 day(s).

<< 37 38 39 40 41 >>
Time Temp. Humidity Pressure Rain* Wind** Luminosity Snow
1787881631 21.11° C 62% 1025 hPa - - - -
1787880731 21.11° C 63% 1025.1 hPa - - - -
1787879832 21.11° C 66% 1025.3 hPa - - - -
1787878932 21.11° C 66% 1025.4 hPa - - - -
1787878034 21.11° C 67% 1025.4 hPa - - - -
1787877132 21.11° C 69% 1025.3 hPa - - - -
1787876239 21.11° C 71% 1025.5 hPa - - - -
1787875335 21.11° C 74% 1025.5 hPa - - - -
1787874665 21.11° C 77% 1025.4 hPa - - - -
1787873766 21.11° C 81% 1025.3 hPa - - - -
1787872868 21.11° C 84% 1025.5 hPa - - - -
1787872002 21.11° C 85% 1025.4 hPa - - - -
1787871968 21.11° C 85% 1025.4 hPa - - - -
1787871069 21.11° C 85% 1025.4 hPa - - - -
1787870170 21.11° C 85% 1025.5 hPa - - - -
1787869271 21.11° C 85% 1025.8 hPa - - - -
1787868371 21.11° C 85% 1025.9 hPa - - - -
1787867472 21.11° C 84% 1025.9 hPa - - - -
1787866573 21.11° C 87% 1025.8 hPa - - - -
1787865674 21.11° C 92% 1025.8 hPa - - - -
1787864775 21.11° C 100% 1025.8 hPa - - - -
1787863876 21.11° C 100% 1025.9 hPa - - - -
1787862978 21.11° C 100% 1025.8 hPa - - - -
1787862078 21.11° C 99% 1025.9 hPa - - - -
1787861226 21.11° C 96% 1025.8 hPa - - - -

* Rain since midnight (hover to see other rain measurements)
** Current wind speed in m/s (hover to see current wind gust speed)